User: anonymous   Login
Location: Muenchen
(48.1800°N, 11.5800°E)
Time: 20:59:12
(UTC+02:00)
Language:

Tiros 1 - Orbit

View from above orbital plane
View from above orbital plane
View from above satellite
View from above satellite

Ground track
Ground track

The orbit data is extracted from the following two-line orbital elements,

1 00029U 60002B   15143.78693488  .00000179  00000-0  58098-4 0  9997
2 00029 048.3809 044.7005 0024583 233.8181 126.0456 14.73804051945468
Epoch (UTC): 23 May 2015 18:53:11
Eccentricity: 0.0024583
inclination: 48.3809°
perigee height: 631 km
apogee height: 666 km
right ascension of ascending node: 44.7005°
argument of perigee: 233.8181°
revolutions per day: 14.73804051
mean anomaly at epoch: 126.0456°
orbit number at epoch: 94546

The dashed part of the orbit path shows where the satellite is in the earth's shadow,  

DLR